Content
SEND FEEDBACK

Daily
Averages
Monthly
Summary
Jamaica

MONTEGO BAY, JAMAICA


Home > Caribbean > Jamaica
Elevation: 10 feet     Latitude: 18 30N     Longitude: 077 55W

WEATHER
 
SELECT A DAY
Number of Records: 168,021;   Date Range: 7/1/96 - 7/23/14
 
SHARE

PRINT THIS DATA

[ ← Previous Day ]
WEATHER ALMANAC - FEBRUARY 8, 2014
[ Next Day → ]
[ °C ]   °F
Weather ElementAverageHighLow
Temperature77.8 °F86 °F (1:00 pm)73 °F (4:00 am)
Dewpoint73.1 °F77 °F (4:00 pm)69.8 °F (1:00 am)
Humidity84.9 %100 % (10:00 pm)66 % (1:00 pm)
Barometer29.98 in30.04 in (9:00 am)29.92 in (3:00 pm)
Wind Speed6.1 mph15 mph (2:00 pm)
Weather ElementAverage
Visibility7.5 mi
Wind DirectionE (86.5 °)

Weather ElementTotal
Precipitation---
Cooling Degree Days14.5 (Base 65)
Growing Degree Days29.5 (Base 50)
Averaged from 27 records on February 8, 2014
WEATHER CONDITIONS BREAKOUT
WIND DIRECTION BREAKOUT
WEATHER BY HOUR - FEBRUARY 8, 2014
[ °C ]   °F
Local TimeTemperatureDewpointHumidityBarometerVisibilityWind DirectionWind SpeedGust SpeedPrecipitationEventsConditions
1:00 AM74.0 °F71.0 °F86 %30.00 in12.0 mi°1.2 mphHaze
1:00 AM75.2 °F69.8 °F83 %29.98 in6.2 miVariable1.2 mphPartly Cloudy
2:00 AM73.4 °F69.8 °F88 %29.98 in6.2 miVariable1.2 mphPartly Cloudy
3:00 AM73.4 °F69.8 °F88 %29.95 in6.2 miVariable2.3 mphPartly Cloudy
4:00 AM73.0 °F70.0 °F87 %29.97 in12.0 miSE (140°)3.5 mphHaze
4:00 AM73.4 °F69.8 °F88 %29.95 in6.2 miSE (140°)3.5 mphPartly Cloudy
5:00 AM73.4 °F69.8 °F88 %29.95 in6.2 miVariable1.2 mphPartly Cloudy
6:00 AM75.2 °F69.8 °F83 %29.98 in6.2 miSSE (150°)6.9 mphPartly Cloudy
7:00 AM76.0 °F72.0 °F83 %30.01 in17.0 miSE (130°)5.8 mphHaze
7:00 AM75.2 °F71.6 °F89 %30.01 in6.2 miSE (130°)5.8 mphPartly Cloudy
8:00 AM78.8 °F73.4 °F83 %30.01 in6.2 miESE (120°)5.8 mphPartly Cloudy
9:00 AM80.6 °F75.2 °F84 %30.04 in6.2 miESE (120°)8.1 mphPartly Cloudy
11:00 AM82.4 °F75.2 °F79 %30.01 in6.2 miENE (60°)11.5 mphPartly Cloudy
12:00 PM84.2 °F75.2 °F74 %30.01 in6.2 miENE (60°)12.7 mphPartly Cloudy
1:00 PM86.0 °F73.4 °F66 %29.98 in6.2 miENE (60°)13.8 mphPartly Cloudy
2:00 PM84.2 °F75.2 °F74 %29.95 in6.2 miENE (60°)15.0 mphPartly Cloudy
3:00 PM80.6 °F75.2 °F84 %29.92 in6.2 miEast (80°)12.7 mphPartly Cloudy
4:00 PM83.0 °F76.0 °F74 %29.93 in14.0 miENE (70°)11.5 mphHaze
4:00 PM82.4 °F77.0 °F84 %29.92 in6.2 miENE (70°)11.5 mphPartly Cloudy
5:00 PM80.6 °F75.2 °F84 %29.95 in6.2 miEast (80°)8.1 mphMostly Cloudy
6:00 PM78.8 °F75.2 °F89 %29.95 in6.2 miSouth (190°)4.6 mphPartly Cloudy
7:00 PM76.0 °F73.0 °F88 %29.97 in12.0 miSouth (180°)3.5 mphScattered Clouds
7:00 PM77.0 °F73.4 °F89 %29.95 in6.2 miSouth (180°)3.5 mphPartly Cloudy
8:00 PM77.0 °F73.4 °F89 %29.98 in6.2 miVariable1.2 mphPartly Cloudy
9:00 PM77.0 °F75.2 °F94 %30.01 in6.2 miSW (230°)4.6 mphPartly Cloudy
10:00 PM75.2 °F75.2 °F100 %30.01 in6.2 miVariable2.3 mphPartly Cloudy
11:00 PM75.2 °F73.4 °F94 %30.01 in6.2 miVariable2.3 mphPartly Cloudy
Hourly data recorded from MKJS, located miles away from Montego Bay, Jamaica







STORIES FROM OUR PARTNERS